Location: Alafon
(8.4500°N, 4.2333°E)
Time: 01:28:29
(UTC+00:00)

deb Explorer IX - Pass Details

Date: 26 July 2021
Orbit: 545 x 1092 km, 38.8° (Epoch: 16 September)

Event Time Altitude Azimuth Distance (km) Brightness Sun altitude
Rises 23:49:47 0° 293° (WNW) 3,858 - -62.1°
Reaches altitude 10° 23:52:57 10° 283° (WNW) 2,863 - -62.1°
Maximum altitude 23:58:54 30° 224° (SW) 1,683 - -62.0°
Drops below altitude 10° 00:04:21 10° 165° (SSE) 2,593 - -61.9°
Sets 00:07:06 0° 154° (SSE) 3,443 - -61.8°
